FW5863 Weather Reports


Display with metric or nautical units.
time (UTC)temp
F
wind
direction
speed
MPH
gust
MPH
rain 1hr
in
rain 24hr
in
rain mn
in
humidity
%
barometer
mb
20260504050502 49 242 7.0 11.0 0.00 0.00 0.00 54 1013.7
20260504050004 49 50 6.0 13.0 0.00 0.00 0.00 55 1013.6
20260504045501 49 50 6.0 13.0 0.00 0.00 0.00 54 1013.7
20260504045002 49 50 6.0 11.0 0.00 0.00 0.00 54 1013.6
20260504044501 49 50 6.0 10.0 0.00 0.00 0.00 54 1013.6
20260504044001 49 50 6.0 10.0 0.00 0.00 0.00 54 1013.6
20260504043502 49 50 6.0 10.0 0.00 0.00 0.00 54 1013.6
20260504043003 49 50 6.0 11.0 0.00 0.00 0.00 54 1013.6
20260504042501 50 50 8.0 16.0 0.00 0.00 0.00 53 1013.6
20260504042001 50 50 9.0 16.0 0.00 0.00 0.00 52 1013.6
20260504041503 50 50 8.0 11.0 0.00 0.00 0.00 53 1013.5
20260504041001 50 50 7.0 11.0 0.00 0.00 0.00 53 1013.5
20260504040501 50 50 7.0 11.0 0.00 0.00 0.00 52 1013.5
20260504040007 50 50 8.0 11.0 0.00 0.00 0.00 52 1013.4
20260504035501 50 50 8.0 15.0 0.00 0.00 0.00 52 1013.3
20260504035001 50 50 8.0 15.0 0.00 0.00 0.00 51 1013.1
20260504034503 50 50 7.0 12.0 0.00 0.00 0.00 52 1013.1
20260504034002 50 50 7.0 11.0 0.00 0.00 0.00 52 1013.1
20260504033502 50 50 7.0 11.0 0.00 0.00 0.00 52 1013.1
20260504033003 50 50 7.0 11.0 0.00 0.00 0.00 52 1013.1
20260504032501 50 50 6.0 11.0 0.00 0.00 0.00 52 1013.1
20260504032001 50 50 5.0 10.0 0.00 0.00 0.00 53 1013.1
20260504031503 50 50 5.0 10.0 0.00 0.00 0.00 52 1013.1
20260504031001 50 50 5.0 8.0 0.00 0.00 0.00 52 1013.0
20260504030501 50 50 5.0 7.0 0.00 0.00 0.00 52 1012.9
20260504025503 51 233 5.0 9.0 0.00 0.00 0.00 50 1013.0
20260504025001 52 236 6.0 10.0 0.00 0.00 0.00 49 1012.9
20260504024502 52 257 6.0 10.0 0.00 0.00 0.00 49 1012.9
20260504023002 52 252 6.0 9.0 0.00 0.00 0.00 48 1013.0
20260504022501 52 252 6.0 9.0 0.00 0.00 0.00 47 1013.0
20260504022001 52 248 6.0 9.0 0.00 0.00 0.00 47 1013.0
20260504021502 52 237 6.0 8.0 0.00 0.00 0.00 48 1013.0
20260504021001 52 255 6.0 9.0 0.00 0.00 0.00 48 1013.0
20260504020503 52 259 6.0 9.0 0.00 0.00 0.00 47 1013.0
20260504015501 53 248 6.0 10.0 0.00 0.00 0.00 47 1012.9
20260504015001 53 240 6.0 9.0 0.00 0.00 0.00 46 1013.0
20260504014502 53 257 6.0 10.0 0.00 0.00 0.00 46 1012.9
20260504014001 53 255 6.0 10.0 0.00 0.00 0.00 46 1012.9
20260504013501 53 250 6.0 10.0 0.00 0.00 0.00 46 1012.9
20260504013004 53 249 7.0 10.0 0.00 0.00 0.00 45 1012.9
20260504012500 54 234 7.0 10.0 0.00 0.00 0.00 45 1012.8
20260504012001 54 252 7.0 10.0 0.00 0.00 0.00 45 1012.8
20260504011502 54 263 7.0 10.0 0.00 0.00 0.00 44 1012.8
20260504011001 54 252 6.0 10.0 0.00 0.00 0.00 44 1012.7
20260504010501 54 238 7.0 10.0 0.00 0.00 0.00 45 1012.6
20260504010004 54 237 7.0 10.0 0.00 0.00 0.00 44 1012.6
20260504005501 54 240 7.0 10.0 0.00 0.00 0.00 44 1012.6
20260504005001 54 265 7.0 10.0 0.00 0.00 0.00 44 1012.5
20260504004502 54 244 7.0 10.0 0.00 0.00 0.00 44 1012.5
20260504004000 54 248 7.0 10.0 0.00 0.00 0.00 44 1012.4
20260504003501 54 264 6.0 10.0 0.00 0.00 0.00 44 1012.3
20260504002501 55 252 6.0 10.0 0.00 0.00 0.00 43 1012.2
20260504002002 55 246 6.0 10.0 0.00 0.00 0.00 43 1012.1
20260504001001 55 238 5.0 8.0 0.00 0.00 0.00 43 1012.0
20260504000501 55 250 5.0 8.0 0.00 0.00 0.00 43 1012.0
20260504000005 55 251 5.0 7.0 0.00 0.00 0.00 42 1012.0
20260503235501 56 249 6.0 10.0 0.00 0.00 0.00 42 1011.9
20260503235001 56 50 7.0 10.0 0.00 0.00 0.00 42 1011.9
20260503234502 56 50 6.0 10.0 0.00 0.00 0.00 42 1011.8
20260503233501 57 50 8.0 13.0 0.00 0.00 0.00 41 1011.8
20260503233003 57 50 9.0 16.0 0.00 0.00 0.00 39 1011.6
20260503232502 57 50 8.0 16.0 0.00 0.00 0.00 39 1011.6
20260503232001 57 50 7.0 14.0 0.00 0.00 0.00 40 1011.6
20260503231502 58 50 8.0 14.0 0.00 0.00 0.00 40 1011.6
20260503231001 58 50 10.0 17.0 0.00 0.00 0.00 39 1011.6
20260503230501 58 50 9.0 17.0 0.00 0.00 0.00 38 1011.5
20260503230004 58 50 9.0 16.0 0.00 0.00 0.00 38 1011.5
20260503225501 58 50 7.0 16.0 0.00 0.00 0.00 38 1011.6
20260503225001 58 50 8.0 16.0 0.00 0.00 0.00 38 1011.5
20260503224001 58 50 10.0 19.0 0.00 0.00 0.00 37 1011.4
20260503223501 58 50 9.0 16.0 0.00 0.00 0.00 39 1011.4
20260503223002 58 50 10.0 18.0 0.00 0.00 0.00 39 1011.4
20260503222501 58 50 11.0 21.0 0.00 0.00 0.00 38 1011.4
20260503222001 59 50 9.0 21.0 0.00 0.00 0.00 37 1011.4
20260503221502 59 50 9.0 17.0 0.00 0.00 0.00 37 1011.4
20260503220501 59 50 9.0 18.0 0.00 0.00 0.00 38 1011.4
20260503220005 59 50 7.0 12.0 0.00 0.00 0.00 40 1011.4
20260503215503 59 50 9.0 13.0 0.00 0.00 0.00 38 1011.4
20260503215001 58 50 10.0 18.0 0.00 0.00 0.00 40 1011.5
20260503213501 59 50 9.0 15.0 0.00 0.00 0.00 37 1011.4
20260503213003 59 50 8.0 14.0 0.00 0.00 0.00 37 1011.3
20260503212501 59 50 10.0 17.0 0.00 0.00 0.00 36 1011.2
20260503212001 59 50 10.0 18.0 0.00 0.00 0.00 37 1011.2
20260503211502 58 50 9.0 18.0 0.00 0.00 0.00 35 1011.3
20260503211001 58 50 11.0 23.0 0.00 0.00 0.00 37 1011.2
20260503210501 59 50 11.0 23.0 0.00 0.00 0.00 34 1011.2
20260503210005 59 50 9.0 17.0 0.00 0.00 0.00 38 1011.3
20260503205001 58 50 10.0 23.0 0.00 0.00 0.00 37 1011.2
20260503204502 59 50 9.0 17.0 0.00 0.00 0.00 36 1011.3
20260503204001 58 50 11.0 19.0 0.00 0.00 0.00 36 1011.3
20260503203501 58 50 11.0 19.0 0.00 0.00 0.00 36 1011.3
20260503202501 59 50 10.0 17.0 0.00 0.00 0.00 35 1011.4
20260503202001 58 50 10.0 16.0 0.00 0.00 0.00 37 1011.4
20260503201502 58 50 10.0 16.0 0.00 0.00 0.00 34 1011.6
20260503201001 59 50 10.0 20.0 0.00 0.00 0.00 35 1011.5
20260503200004 58 50 8.0 19.0 0.00 0.00 0.00 38 1011.7
20260503195501 58 50 10.0 23.0 0.00 0.00 0.00 38 1011.8
20260503195001 57 50 11.0 23.0 0.00 0.00 0.00 38 1011.8
20260503194502 57 50 12.0 20.0 0.00 0.00 0.00 38 1011.9
20260503194001 56 50 13.0 21.0 0.00 0.00 0.00 37 1012.0
20260503193501 57 50 11.0 21.0 0.00 0.00 0.00 37 1012.0
20260503193004 56 50 11.0 21.0 0.00 0.00 0.00 39 1012.1
20260503192501 56 50 12.0 21.0 0.00 0.00 0.00 40 1012.1
20260503192001 57 50 12.0 21.0 0.00 0.00 0.00 37 1012.1
20260503191001 56 337 12.0 21.0 0.00 0.00 0.00 39 1012.2
20260503190502 56 323 12.0 21.0 0.00 0.00 0.00 38 1012.2
20260503190004 56 324 11.0 22.0 0.00 0.00 0.00 40 1012.3
20260503185501 56 277 11.0 22.0 0.00 0.00 0.00 39 1012.3
20260503184001 55 307 13.0 24.0 0.00 0.00 0.00 39 1012.5
20260503183501 56 293 11.0 22.0 0.00 0.00 0.00 40 1012.6
20260503183002 55 275 9.0 22.0 0.00 0.00 0.00 43 1012.6
20260503182501 54 347 9.0 18.0 0.00 0.00 0.00 44 1012.7
20260503182002 54 281 10.0 19.0 0.00 0.00 0.00 43 1012.8
20260503181502 54 348 11.0 23.0 0.00 0.00 0.00 40 1012.7
20260503180501 55 319 10.0 23.0 0.00 0.00 0.00 40 1012.7
20260503180003 54 294 10.0 23.0 0.00 0.00 0.00 42 1012.9
20260503175501 53 330 11.0 26.0 0.00 0.00 0.00 44 1012.9
20260503175001 54 298 12.0 26.0 0.00 0.00 0.00 40 1012.9
20260503174001 53 264 11.0 18.0 0.00 0.00 0.00 43 1012.9
20260503173501 53 268 10.0 22.0 0.00 0.00 0.00 44 1013.0
20260503173002 53 267 10.0 22.0 0.00 0.00 0.00 44 1013.0
20260503172501 53 300 10.0 18.0 0.00 0.00 0.00 42 1013.0
20260503171502 53 300 10.0 20.0 0.00 0.00 0.00 48 1013.2
20260503171001 53 294 11.0 20.0 0.00 0.00 0.00 43 1013.3
20260503170501 53 279 9.0 18.0 0.00 0.00 0.00 44 1013.2
20260503151001 48 314 8.0 15.0 0.00 0.00 0.00 52 1013.9
20260503150501 48 335 6.0 15.0 0.00 0.00 0.00 54 1013.9
20260503131001 45 50 8.0 16.0 0.00 0.00 0.00 61 1014.2
20260503130501 44 50 10.0 19.0 0.00 0.00 0.00 62 1014.2
20260503090501 42 50 3.0 9.0 0.00 0.00 0.00 64 1012.1
20260503081503 43 50 6.0 12.0 0.00 0.00 0.00 64 1012.0
20260503081001 43 50 6.0 12.0 0.00 0.00 0.00 64 1011.9
20260503080501 43 50 5.0 10.0 0.00 0.00 0.00 65 1011.8
20260503072501 43 50 6.0 13.0 0.00 0.00 0.00 63 1011.6
20260503071501 43 50 7.0 13.0 0.00 0.00 0.00 64 1011.6
20260503071001 43 50 5.0 11.0 0.00 0.00 0.00 63 1011.6
20260503054502 45 50 5.0 13.0 0.00 0.04 0.00 62 1011.9
20260503054001 45 50 4.0 10.0 0.00 0.04 0.00 63 1011.8
20260503052501 45 50 5.0 11.0 0.00 0.04 0.00 63 1011.9
20260503052001 46 50 6.0 11.0 0.00 0.04 0.00 63 1011.9